Location: Boiro
(42.6475°N, 8.8834°W)
Time: 16:48:03
(UTC+02:00)

DELTA 1 DEB - Visible Passes

Search period start: 03 July 2022 00:00
Search period end: 13 July 2022 00:00
Orbit: 821 x 871 km, 99.0° (Epoch: 01 July)

Date Brightness Start Highest point End Pass type
(mag) Time Alt. Az. Time Alt. Az. Time Alt. Az.
07 Jul ? 06:26:50 10° NE 06:31:12 24° E 06:35:29 10° SE visible
08 Jul ? 06:14:14 10° NE 06:17:56 18° E 06:21:34 10° SE visible
09 Jul ? 06:01:59 10° ENE 06:04:38 14° E 06:07:16 10° ESE visible
